Location: Ailingen
(47.6833°N, 9.5000°E)
Time: 12:38:42
(UTC+00:00)

CZ-4C R/B - Pass Details

Date: 18 November 2025
Orbit: 487 x 1492 km, 63.4° (Epoch: 06 December)

Event Time Altitude Azimuth Distance (km) Brightness Sun altitude
Rises 18:45:22 0° 306° (NW) 3,255 6.1 -30.6°
Reaches altitude 10° 18:48:18 10° 325° (NW) 2,499 5.1 -31.1°
Enters shadow 18:51:50 19° 2° (N) 2,110 4.2 -31.7°
